Location: Ferchesar
(52.6477°N, 12.4298°E)
Time: 10:16:13
(UTC+01:00)

S-56A Canister/Altair - Pass Details

Date: 09 December 2021
Orbit: 633 x 2499 km, 38.9° (Epoch: 19 January)

Event Time Altitude Azimuth Distance (km) Brightness Sun altitude
Rises 01:32:54 0° 257° (WSW) 5,059 - -55.5°
Reaches altitude 10° 01:37:12 10° 248° (WSW) 3,727 - -55.1°
Maximum altitude 01:44:27 27° 195° (SSW) 2,089 - -54.4°
Drops below altitude 10° 01:49:46 10° 139° (SE) 2,667 - -53.8°
Sets 01:52:19 0° 127° (SE) 3,410 - -53.6°
